This demonstration page uses our WeatherBlox Daily Observations layout. Learn more.

Left ArrowRight Arrow

44.8408, -93.29828

Hourly Observations for May 21, 2022

Temp ( °F °C ) Dew Point ( °F °C ) Humidity (%) Winds ( mph kmh ) Pressure ( in mb ) Visibility ( mi km ) Precip ( " mm )
12:53 am 00:53 Cloudy 48 8.9 36 2.2 63 63 NW 15 24 29.87 1012 10 16 0.00 0.00
1:53 am 01:53 Cloudy 48 8.9 35 1.7 61 61 NW 15 24 29.89 1012 10 16 0.00 0.00
2:53 am 02:53 Cloudy 47 8.3 33 0.6 59 59 NNW 14 22 29.92 1013 10 16 0.00 0.00
3:53 am 03:53 Cloudy 46 7.8 33 0.6 61 61 N 14 22 29.95 1014 10 16 0.00 0.00
4:53 am 04:53 Cloudy 45 7.2 31 -0.6 58 58 NNW 15 24 29.98 1015 10 16 0.00 0.00
5:53 am 05:53 Mostly Cloudy 44 6.7 31 -0.6 60 60 NNW 12 19 30.01 1016 10 16 0.00 0.00
6:53 am 06:53 Mostly Cloudy 45 7.2 31 -0.6 58 58 N 12 19 30.04 1017 10 16 0.00 0.00
7:53 am 07:53 Cloudy 46 7.8 31 -0.6 56 56 NNE 8 13 30.07 1018 10 16 0.00 0.00
8:53 am 08:53 Mostly Cloudy 47 8.3 32 0 56 56 NW 10 17 30.07 1018 10 16 0.00 0.00
9:53 am 09:53 Mostly Cloudy 48 8.9 32 0 54 54 VRB 6 9 30.09 1019 10 16 0.00 0.00
10:53 am 10:53 Mostly Cloudy 52 11.1 33 0.6 49 49 NNW 9 15 30.10 1019 10 16 0.00 0.00
11:53 am 11:53 Mostly Cloudy 53 11.7 32 0 45 45 N 13 20 30.10 1019 10 16 0.00 0.00
12:53 pm 12:53 Mostly Cloudy 54 12.2 33 0.6 45 45 NW 15 24 30.11 1020 10 16 0.00 0.00
1:53 pm 13:53 Mostly Cloudy 53 11.7 31 -0.6 43 43 NW 9 15 30.11 1020 10 16 0.00 0.00
2:53 pm 14:53 Cloudy 54 12.2 31 -0.6 42 42 NW 12 19 30.10 1019 10 16 0.00 0.00
3:53 pm 15:53 Cloudy 53 11.7 29 -1.7 40 40 WNW 13 20 30.11 1020 10 16 0.00 0.00
4:53 pm 16:53 Cloudy 53 11.7 29 -1.7 40 40 NW 15 24 30.11 1020 10 16 0.00 0.00
5:53 pm 17:53 Mostly Cloudy 54 12.2 29 -1.7 38 38 NW 14 22 30.11 1020 10 16 0.00 0.00
6:53 pm 18:53 Cloudy 53 11.7 28 -2.2 38 38 WNW 14 22 30.12 1020 10 16 0.00 0.00
7:53 pm 19:53 Mostly Cloudy 52 11.1 28 -2.2 40 40 NW 13 20 30.14 1021 10 16 0.00 0.00
8:53 pm 20:53 Mostly Cloudy 51 10.6 28 -2.2 41 41 NW 14 22 30.16 1021 10 16 0.00 0.00
9:53 pm 21:53 Mostly Cloudy 50 10 28 -2.2 43 43 NW 10 17 30.19 1022 10 16 0.00 0.00
10:53 pm 22:53 Partly Cloudy 48 8.9 29 -1.7 48 48 NNW 13 20 30.21 1023 10 16 0.00 0.00
11:53 pm 23:53 Mostly Cloudy 47 8.3 29 -1.7 50 50 NNW 9 15 30.22 1023 10 16 0.00 0.00

Powered by AerisWeather